Fort Smith, AR

3:44 AM CST on February 14, 2016 (GMT -0600)
Fort Smith Regional

Weather History for KFSM - April, 2014

Change the Weather History Date:

Wednesday, April 16, 2014

  Actual Average Record
Temperature  
Mean Temperature 54 °F 62 °F  
Max Temperature 67 °F 74 °F 92 °F (2006)
Min Temperature 40 °F 50 °F 32 °F (1953)
Degree Days  
Heating Degree Days 11 5  
Month to date heating degree days 114 106  
Since 1 July heating degree days 3518 3165  
Cooling Degree Days 0 2  
Month to date cooling degree days 28 22  
Year to date cooling degree days 28 34  
Growing Degree Days 2 (Base 50)    
Moisture  
Dew Point 32 °F    
Average Humidity 52    
Maximum Humidity 79    
Minimum Humidity 24    
Precipitation  
Precipitation 0.00 in 0.14 in 2.27 in (1939)
Month to date precipitation 2.01 2.14  
Year to date precipitation 7.63 11.56  
Sea Level Pressure  
Sea Level Pressure 30.10 in    
Wind  
Wind Speed 9 mph (SE)    
Max Wind Speed 18 mph    
Max Gust Speed 27 mph    
Visibility 10 miles    
Events      
T = Trace of Precipitation, MM = Missing Value Source: NWS Daily Summary

Daily Weather History Graph

Daily Weather History Graph

Search for Another Location

Airport or City:

Trip Planner

Search our weather history database for the weather conditions in past years. The results will help you decide how hot, cold, wet, or windy it might be!

Date:

Astronomy

Apr. 16, 2014 Rise Set
Actual Time 6:43 AM CDT 7:51 PM CDT
Civil Twilight 6:17 AM CDT 8:17 PM CDT
Nautical Twilight 5:46 AM CDT 8:48 PM CDT
Astronomical Twilight 5:14 AM CDT 9:21 PM CDT
Moon 9:32 PM CDT (4/16) 7:34 AM CDT (4/16)
Length of Visible Light 13h 59m
Length of Day
13h 07m
Full, 98% of the Moon is Illuminated
Apr 16
Full
Apr 22
Last Quarter
Apr 29
New
May 6
First Quarter
May 14
Full

Hourly Weather History & Observations

Time (CDT) Temp. Windchill Dew Point Humidity Pressure Visibility Wind Dir Wind Speed Gust Speed Precip Events Conditions
12:53 AM 48.0 °F - 28.9 °F 48% 30.14 in 10.0 mi SE 3.5 mph - N/A   Clear
1:53 AM 48.0 °F - 28.0 °F 46% 30.14 in 10.0 mi East 4.6 mph - N/A   Clear
2:53 AM 43.0 °F 38.8 °F 34.0 °F 71% 30.13 in 10.0 mi ENE 6.9 mph - N/A   Clear
3:53 AM 39.9 °F 35.1 °F 33.1 °F 77% 30.13 in 10.0 mi ENE 6.9 mph - N/A   Clear
4:53 AM 42.1 °F 36.6 °F 32.0 °F 67% 30.13 in 10.0 mi ENE 9.2 mph - N/A   Clear
5:53 AM 41.0 °F 35.2 °F 33.1 °F 73% 30.14 in 10.0 mi ENE 9.2 mph - N/A   Clear
6:53 AM 41.0 °F 35.2 °F 33.1 °F 73% 30.16 in 10.0 mi ENE 9.2 mph - N/A   Clear
7:53 AM 42.1 °F 37.7 °F 34.0 °F 73% 30.17 in 10.0 mi East 6.9 mph - N/A   Clear
8:53 AM 48.9 °F - 33.1 °F 54% 30.17 in 10.0 mi ESE 10.4 mph - N/A   Clear
9:53 AM 53.1 °F - 32.0 °F 45% 30.17 in 10.0 mi SE 12.7 mph - N/A   Clear
10:53 AM 55.9 °F - 33.1 °F 42% 30.16 in 10.0 mi SSE 10.4 mph 18.4 mph N/A   Clear
11:53 AM 59.0 °F - 32.0 °F 36% 30.15 in 10.0 mi SSE 13.8 mph 21.9 mph N/A   Clear
12:53 PM 62.6 °F - 32.0 °F 32% 30.12 in 10.0 mi SE 12.7 mph 24.2 mph N/A   Clear
1:53 PM 63.0 °F - 30.0 °F 29% 30.08 in 10.0 mi SSE 12.7 mph 21.9 mph N/A   Clear
2:53 PM 64.0 °F - 28.9 °F 27% 30.06 in 10.0 mi South 12.7 mph 21.9 mph N/A   Clear
3:53 PM 66.0 °F - 30.9 °F 27% 30.02 in 10.0 mi SE 13.8 mph - N/A   Clear
4:53 PM 66.9 °F - 30.0 °F 25% 29.99 in 10.0 mi South 11.5 mph - N/A   Clear
5:53 PM 66.0 °F - 28.9 °F 25% 30.00 in 10.0 mi SSE 10.4 mph 20.7 mph N/A   Clear
6:53 PM 64.0 °F - 30.9 °F 29% 30.00 in 10.0 mi SSE 9.2 mph - N/A   Clear
7:53 PM 61.0 °F - 30.9 °F 32% 30.01 in 10.0 mi SE 6.9 mph - N/A   Clear
8:53 PM 57.9 °F - 30.9 °F 36% 30.04 in 10.0 mi SE 5.8 mph - N/A   Clear
9:53 PM 55.0 °F - 32.0 °F 42% 30.07 in 10.0 mi ESE 4.6 mph - N/A   Clear
10:53 PM 53.1 °F - 33.1 °F 47% 30.11 in 10.0 mi Calm Calm - N/A   Clear
11:53 PM 48.0 °F - 35.1 °F 61% 30.12 in 10.0 mi Calm Calm - N/A   Clear